Weather History for Waukesha, WI

Change the Weather History Date:

Friday, February 17, 2012

  Actual Average Record
Temperature  
Mean Temperature 30 °F -  
Max Temperature 39 °F 31 °F 58 °F (1981)
Min Temperature 21 °F 16 °F -11 °F (1958)
Degree Days  
Heating Degree Days 35    
Moisture  
Dew Point 25 °F    
Average Humidity 81    
Maximum Humidity 93    
Minimum Humidity 65    
Precipitation  
Precipitation 0.00 in - - ()
Sea Level Pressure  
Sea Level Pressure 30.05 in    
Wind  
Wind Speed 7 mph (WSW)    
Max Wind Speed 13 mph    
Max Gust Speed -    
Visibility 9 miles    
Events Snow    
Averages and records for this station are not official NWS values.
T = Trace of Precipitation, MM = Missing Value Source: NWS Daily Summary

Daily Weather History Graph

Daily Weather History Graph

Search for Another Location

Airport:

Trip Planner

Search our weather history database for the weather conditions in past years. The results will help you decide how hot, cold, wet, or windy it might be!

Date:

Astronomy

Feb. 17, 2012 Rise Set
Actual Time 6:48 AM CST 5:26 PM CST
Civil Twilight 6:19 AM CST 5:55 PM CST
Nautical Twilight 5:46 AM CST 6:28 PM CST
Astronomical Twilight 5:13 AM CST 7:01 PM CST
Moon 3:44 AM CST (2/17) 1:14 PM CST (2/17)
Length of Visible Light 11h 36m
Length of Day
10h 37m
Waning Crescent, 19% of the Moon is Illuminated
Feb 17
Waning Crescent
Feb 21
New
Feb 29
First Quarter
Mar 8
Full
Mar 14
Last Quarter

Hourly Weather History & Observations

Time (CST) Temp. Windchill Dew Point Humidity Pressure Visibility Wind Dir Wind Speed Gust Speed Precip Events Conditions
12:15 AM 30.2 °F 22.6 °F 21.2 °F 69% 30.08 in 10.0 mi West 8.1 mph - N/A   Clear
12:35 AM 28.4 °F 21.2 °F 21.2 °F 74% 30.08 in 10.0 mi WSW 6.9 mph - N/A   Clear
12:55 AM 28.4 °F 22.2 °F 21.2 °F 74% 30.09 in 10.0 mi WSW 5.8 mph - N/A   Clear
1:15 AM 28.4 °F 22.2 °F 21.2 °F 74% 30.09 in 10.0 mi WSW 5.8 mph - N/A   Clear
1:35 AM 28.4 °F 21.2 °F 21.2 °F 74% 30.09 in 10.0 mi WSW 6.9 mph - N/A   Clear
1:55 AM 28.4 °F 19.7 °F 21.2 °F 74% 30.09 in 10.0 mi West 9.2 mph - N/A   Clear
2:15 AM 28.4 °F 20.4 °F 21.2 °F 74% 30.10 in 10.0 mi West 8.1 mph - N/A   Clear
2:55 AM 28.4 °F 22.2 °F 21.2 °F 74% 30.10 in 10.0 mi WSW 5.8 mph - N/A   Clear
3:15 AM 26.6 °F 20.0 °F 21.2 °F 80% 30.10 in 10.0 mi WSW 5.8 mph - N/A   Clear
3:35 AM 26.6 °F 19.1 °F 21.2 °F 80% 30.10 in 10.0 mi WSW 6.9 mph - N/A   Clear
4:15 AM 26.6 °F 21.2 °F 21.2 °F 80% 30.11 in 10.0 mi WSW 4.6 mph - N/A   Clear
4:35 AM 24.8 °F 19.1 °F 21.2 °F 86% 30.11 in 10.0 mi WSW 4.6 mph - N/A   Clear
5:45 AM 23.0 °F 17.0 °F 19.4 °F 86% 30.10 in 10.0 mi SW 4.6 mph - N/A   Clear
6:45 AM 21.2 °F - 19.4 °F 93% 30.11 in 10.0 mi Calm Calm - N/A   Clear
7:45 AM 24.8 °F 17.9 °F 21.2 °F 86% 30.11 in 10.0 mi SSW 5.8 mph - N/A   Clear
8:45 AM 28.4 °F 22.2 °F 23.0 °F 80% 30.11 in 10.0 mi SSW 5.8 mph - N/A   Scattered Clouds
9:45 AM 30.2 °F 25.4 °F 24.8 °F 80% 30.12 in 10.0 mi SSW 4.6 mph - N/A   Overcast
9:55 AM 30.2 °F 22.6 °F 24.8 °F 80% 30.12 in 4.0 mi SSW 8.1 mph - N/A Snow Light Snow
10:03 AM 30.2 °F 21.9 °F 24.8 °F 80% 30.13 in 1.5 mi SSW 9.2 mph - N/A Snow Heavy Snow
10:20 AM 28.4 °F 22.2 °F 26.6 °F 93% 30.11 in 4.0 mi South 5.8 mph - N/A Snow Light Snow
10:45 AM 30.2 °F 23.4 °F 28.4 °F 93% 30.10 in 5.0 mi South 6.9 mph - N/A Snow Light Snow
11:30 AM 32.0 °F 25.6 °F 28.4 °F 87% 30.09 in 2.0 mi SW 6.9 mph - N/A Snow Snow
11:45 AM 30.2 °F 23.4 °F 28.4 °F 93% 30.08 in 1.0 mi SSW 6.9 mph - N/A Snow Snow
12:00 PM 30.2 °F 24.3 °F 28.4 °F 93% 30.06 in 2.0 mi SSE 5.8 mph - N/A Snow Light Snow
12:45 PM 30.2 °F 23.4 °F 28.4 °F 93% 30.04 in 1.8 mi South 6.9 mph - N/A Snow Light Snow
1:45 PM 32.0 °F 24.2 °F 30.2 °F 93% 30.00 in 10.0 mi SSE 9.2 mph - N/A   Mostly Cloudy
2:45 PM 37.4 °F 30.3 °F 28.4 °F 70% 29.99 in 10.0 mi SSW 10.4 mph - N/A   Scattered Clouds
4:45 PM 39.2 °F 35.0 °F 28.4 °F 65% 29.96 in 10.0 mi SW 5.8 mph - N/A   Scattered Clouds
5:45 PM 35.6 °F - 28.4 °F 75% 29.96 in 10.0 mi Calm Calm - N/A   Scattered Clouds
6:45 PM 35.6 °F 29.2 °F 28.4 °F 75% 29.97 in 10.0 mi WNW 8.1 mph - N/A   Mostly Cloudy
7:45 PM 32.0 °F 26.4 °F 28.4 °F 87% 29.97 in 10.0 mi West 5.8 mph - N/A   Scattered Clouds
8:15 PM 33.8 °F 24.8 °F 28.4 °F 81% 29.98 in 10.0 mi West 12.7 mph - N/A   Scattered Clouds
8:45 PM 33.8 °F 26.4 °F 28.4 °F 81% 29.98 in 10.0 mi West 9.2 mph - N/A   Mostly Cloudy
8:55 PM 33.8 °F 25.3 °F 28.4 °F 81% 29.99 in 10.0 mi West 11.5 mph - N/A   Mostly Cloudy
9:15 PM 32.0 °F 24.2 °F 28.4 °F 87% 29.99 in 10.0 mi West 9.2 mph - N/A   Scattered Clouds
9:35 PM 32.0 °F 24.8 °F 26.6 °F 80% 29.99 in 10.0 mi West 8.1 mph - N/A   Clear
9:55 PM 32.0 °F 25.6 °F 26.6 °F 80% 29.99 in 10.0 mi West 6.9 mph - N/A   Clear
10:15 PM 32.0 °F 25.6 °F 26.6 °F 80% 29.99 in 10.0 mi West 6.9 mph - N/A   Clear
10:35 PM 32.0 °F 25.6 °F 26.6 °F 80% 29.99 in 10.0 mi West 6.9 mph - N/A   Scattered Clouds
10:55 PM 32.0 °F 25.6 °F 26.6 °F 80% 29.99 in 10.0 mi West 6.9 mph - N/A   Scattered Clouds
11:15 PM 30.2 °F 22.6 °F 26.6 °F 86% 30.00 in 10.0 mi West 8.1 mph - N/A   Clear
11:35 PM 30.2 °F 23.4 °F 24.8 °F 80% 30.00 in 10.0 mi West 6.9 mph - N/A   Scattered Clouds
11:55 PM 30.2 °F 24.3 °F 24.8 °F 80% 30.00 in 10.0 mi West 5.8 mph - N/A   Scattered Clouds